Time[GMT],temperature[C](50m),salinity[psu](50m),sigma_t[kg/m^3](50m),dissolved_oxygen[ml/l](50m),oxygen_saturation[ml/l](50m),percent_oxygen_saturation[%](50m),conductivity[msiemens/cm](50m)
2014-10-26 00:00,11.77,32.347,24.572,5.215,6.1819,84.35,37.080
2014-10-26 01:00,11.75,32.349,24.577,5.195,6.1845,84.00,37.064
2014-10-26 02:00,12.07,32.284,24.468,5.321,6.1449,86.59,37.284
2014-10-26 03:00,12.06,32.281,24.468,5.314,6.1463,86.45,37.272
2014-10-26 04:00,12.01,32.286,24.481,5.278,6.1527,85.78,37.232
2014-10-26 05:00,11.96,32.300,24.501,5.242,6.1587,85.12,37.202
2014-10-26 06:00,11.39,32.426,24.703,5.044,6.2294,80.96,36.821
2014-10-26 07:00,11.58,32.392,24.642,5.110,6.2054,82.35,36.956
2014-10-26 08:00,11.78,32.352,24.574,5.213,6.1804,84.35,37.094
2014-10-26 09:00,11.76,32.359,24.583,5.196,6.1828,84.04,37.083
2014-10-26 10:00,11.82,32.357,24.571,5.234,6.1749,84.76,37.135
2014-10-26 11:00,11.90,32.336,24.540,5.258,6.1652,85.29,37.185
2014-10-26 12:00,11.87,32.338,24.547,5.237,6.1691,84.89,37.160
2014-10-26 13:00,11.71,32.370,24.601,5.168,6.1890,83.51,37.050
2014-10-26 14:00,11.58,32.400,24.648,5.112,6.2051,82.39,36.964
2014-10-26 15:00,11.51,32.414,24.672,5.089,6.2139,81.90,36.916
2014-10-26 16:00,11.56,32.451,24.692,5.121,6.2057,82.53,36.999
2014-10-26 17:00,11.77,32.510,24.699,5.278,6.1756,85.47,37.248
2014-10-26 18:00,11.88,32.552,24.711,5.347,6.1595,86.81,37.390
2014-10-26 19:00,11.91,32.525,24.685,5.333,6.1566,86.63,37.390
2014-10-26 20:00,11.67,32.455,24.674,5.178,6.1910,83.64,37.101
2014-10-26 21:00,11.74,32.363,24.591,5.168,6.1852,83.55,37.070
2014-10-26 22:00,11.99,32.325,24.515,5.312,6.1538,86.32,37.255
2014-10-26 23:00,11.94,32.348,24.542,5.306,6.1594,86.14,37.234
2014-10-27 00:00,12.05,32.344,24.518,5.357,6.1452,87.17,37.328
2014-10-27 01:00,12.03,32.350,24.526,5.342,6.1476,86.90,37.316
2014-10-27 02:00,12.13,32.329,24.491,5.378,6.1353,87.66,37.384
2014-10-27 03:00,12.13,32.324,24.488,5.378,6.1355,87.66,37.379
2014-10-27 04:00,12.14,32.327,24.488,5.385,6.1341,87.79,37.391
2014-10-27 05:00,12.11,32.333,24.499,5.361,6.1378,87.35,37.371
2014-10-27 06:00,11.89,32.360,24.560,5.267,6.1656,85.43,37.201
2014-10-27 07:00,11.77,32.385,24.602,5.205,6.1804,84.22,37.119
2014-10-27 08:00,11.76,32.385,24.603,5.198,6.1818,84.09,37.110
2014-10-27 09:00,11.84,32.386,24.590,4.827,6.1712,78.21,37.183
2014-10-27 10:00,11.88,32.382,24.579,4.933,6.1660,80.00,37.215
2014-10-27 11:00,11.98,32.358,24.542,4.767,6.1538,77.46,37.280
2014-10-27 12:00,11.97,32.361,24.546,4.705,6.1550,76.44,37.274
2014-10-27 13:00,11.94,32.369,24.558,4.628,6.1587,75.14,37.255
2014-10-27 14:00,12.03,32.347,24.524,4.880,6.1477,79.38,37.313
2014-10-27 15:00,11.87,32.395,24.591,4.650,6.1669,75.41,37.219
2014-10-27 16:00,11.99,32.359,24.541,4.845,6.1525,78.75,37.290
2014-10-27 17:00,12.03,32.349,24.525,4.683,6.1476,76.17,37.315
2014-10-27 18:00,12.08,32.334,24.505,4.965,6.1416,80.85,37.345
2014-10-27 19:00,11.98,32.361,24.544,4.849,6.1537,78.80,37.283
2014-10-27 20:00,12.05,32.347,24.520,4.853,6.1451,78.98,37.331
2014-10-27 21:00,11.97,32.346,24.534,4.853,6.1556,78.84,37.258
2014-10-27 22:00,11.68,32.473,24.687,4.626,6.1889,74.74,37.129
2014-10-27 23:00,11.66,32.495,24.708,4.528,6.1907,73.14,37.134
2014-10-28 00:00,11.60,32.494,24.718,4.489,6.1987,72.42,37.079
2014-10-28 01:00,11.59,32.476,24.705,4.444,6.2008,71.67,37.051
2014-10-28 02:00,11.66,32.425,24.653,4.395,6.1934,70.95,37.062
2014-10-28 03:00,11.91,32.356,24.554,4.604,6.1631,74.70,37.215
2014-10-28 04:00,11.83,32.376,24.584,4.605,6.1728,74.61,37.164
2014-10-28 05:00,11.65,32.461,24.683,4.339,6.1934,70.06,37.090
2014-10-28 06:00,11.61,32.438,24.672,4.104,6.1996,66.19,37.030
2014-10-28 07:00,11.61,32.431,24.667,4.377,6.1999,70.60,37.023
2014-10-28 08:00,11.68,32.414,24.641,4.156,6.1912,67.13,37.068
2014-10-28 09:00,11.72,32.407,24.628,4.205,6.1862,67.97,37.097
2014-10-28 10:00,11.72,32.429,24.645,4.130,6.1853,66.77,37.120
2014-10-28 11:00,11.63,32.423,24.657,4.149,6.1975,66.95,37.033
2014-10-28 12:00,11.59,32.419,24.661,4.012,6.2030,64.68,36.993
2014-10-28 13:00,11.49,32.456,24.708,3.992,6.2149,64.23,36.941
2014-10-28 14:00,11.49,32.461,24.712,4.371,6.2147,70.33,36.946
2014-10-28 15:00,11.59,32.437,24.675,4.473,6.2023,72.11,37.011
2014-10-28 16:00,11.63,32.445,24.674,4.521,6.1967,72.96,37.055
2014-10-28 17:00,11.89,32.365,24.564,4.776,6.1654,77.46,37.206
2014-10-28 18:00,11.28,32.509,24.787,4.545,6.2410,72.82,36.807
2014-10-28 19:00,11.90,32.362,24.560,4.580,6.1642,74.30,37.212
2014-10-28 20:00,11.91,32.458,24.632,4.776,6.1592,77.55,37.320
2014-10-28 21:00,11.94,32.452,24.622,4.647,6.1554,75.50,37.341
2014-10-28 22:00,11.77,32.523,24.709,4.525,6.1751,73.27,37.261
2014-10-28 23:00,11.57,32.479,24.711,4.526,6.2033,72.96,37.036
2014-10-29 00:00,11.63,32.434,24.666,4.598,6.1971,74.20,37.044
2014-10-29 01:00,11.64,32.479,24.699,4.525,6.1940,73.05,37.099
2014-10-29 02:00,11.59,32.497,24.722,4.526,6.2000,73.00,37.073
2014-10-29 03:00,11.59,32.524,24.742,4.214,6.1989,67.97,37.100
2014-10-29 04:00,11.84,32.566,24.730,4.711,6.1642,76.43,37.369
2014-10-29 05:00,11.98,32.571,24.707,4.408,6.1456,71.72,37.500
2014-10-29 06:00,11.97,32.639,24.762,4.571,6.1443,74.39,37.562
2014-10-29 07:00,11.99,32.669,24.782,4.931,6.1405,80.31,37.611
2014-10-29 08:00,12.01,32.691,24.795,4.549,6.1371,74.12,37.651
2014-10-29 09:00,12.00,32.696,24.801,4.440,6.1382,72.34,37.648
2014-10-29 10:00,11.99,32.647,24.765,4.648,6.1414,75.68,37.588
2014-10-29 11:00,11.99,32.662,24.776,4.410,6.1408,71.81,37.603
2014-10-29 12:00,11.97,32.595,24.728,4.389,6.1460,71.41,37.516
2014-10-29 13:00,11.96,32.612,24.743,4.676,6.1466,76.08,37.525
2014-10-29 14:00,11.95,32.661,24.783,4.545,6.1461,73.94,37.566
2014-10-29 15:00,11.93,32.647,24.776,4.728,6.1492,76.88,37.534
2014-10-29 16:00,11.89,32.648,24.784,4.584,6.1545,74.48,37.498
2014-10-29 17:00,11.86,32.643,24.785,4.702,6.1586,76.34,37.466
2014-10-29 18:00,11.91,32.700,24.820,4.857,6.1498,78.97,37.570
2014-10-29 19:00,12.03,32.716,24.811,4.696,6.1335,76.57,37.696
2014-10-29 20:00,12.02,32.723,24.818,4.506,6.1345,73.46,37.694
2014-10-29 21:00,12.01,32.749,24.840,4.695,6.1349,76.53,37.711
2014-10-29 22:00,11.99,32.754,24.847,4.598,6.1373,74.92,37.698
2014-10-29 23:00,11.94,32.770,24.870,4.507,6.1432,73.36,37.670
2014-10-30 00:00,11.97,32.740,24.840,4.480,6.1404,72.96,37.666
2014-10-30 01:00,11.95,32.741,24.845,4.810,6.1430,78.31,37.649
2014-10-30 02:00,11.83,32.737,24.864,4.677,6.1589,75.94,37.536
2014-10-30 03:00,11.83,32.739,24.866,4.790,6.1588,77.77,37.538
2014-10-30 04:00,11.84,32.760,24.880,4.736,6.1567,76.92,37.569
2014-10-30 05:00,11.87,32.746,24.863,4.651,6.1533,75.59,37.581
2014-10-30 06:00,11.85,32.705,24.836,4.712,6.1575,76.52,37.521
2014-10-30 07:00,11.88,32.712,24.835,4.706,6.1533,76.48,37.555
2014-10-30 08:00,11.93,32.703,24.819,4.586,6.1471,74.61,37.591
2014-10-30 09:00,11.94,32.714,24.826,4.738,6.1453,77.10,37.612
2014-10-30 10:00,11.86,32.777,24.889,4.632,6.1534,75.28,37.604
2014-10-30 11:00,11.83,32.791,24.906,4.558,6.1568,74.03,37.591
2014-10-30 12:00,11.85,32.766,24.883,4.609,6.1552,74.88,37.584
2014-10-30 13:00,11.89,32.714,24.835,4.705,6.1519,76.48,37.567
2014-10-30 14:00,11.86,32.754,24.872,4.562,6.1543,74.12,37.581
2014-10-30 15:00,11.85,32.767,24.884,4.603,6.1551,74.79,37.585
2014-10-30 16:00,11.86,32.737,24.858,4.546,6.1550,73.85,37.563
2014-10-30 17:00,11.83,32.697,24.833,4.487,6.1604,72.83,37.495
2014-10-30 18:00,11.82,32.687,24.827,4.507,6.1622,73.14,37.475
2014-10-30 19:00,11.88,32.681,24.811,4.501,6.1545,73.14,37.523
2014-10-30 20:00,11.90,32.696,24.819,4.349,6.1513,70.69,37.557
2014-10-30 21:00,11.81,32.631,24.786,4.298,6.1656,69.71,37.409
2014-10-30 22:00,11.83,32.656,24.801,4.161,6.1621,67.53,37.452
2014-10-30 23:00,11.75,32.630,24.795,4.276,6.1736,69.27,37.353
2014-10-31 00:00,11.79,32.656,24.808,4.096,6.1673,66.42,37.416
2014-10-31 01:00,11.81,32.727,24.860,4.243,6.1619,68.87,37.507
2014-10-31 02:00,11.80,32.709,24.848,4.497,6.1639,72.96,37.480
2014-10-31 03:00,11.75,32.695,24.846,4.222,6.1711,68.42,37.420
2014-10-31 04:00,11.77,32.697,24.844,4.435,6.1684,71.89,37.440
2014-10-31 05:00,11.79,32.672,24.821,4.793,6.1667,77.72,37.433
2014-10-31 06:00,11.83,32.703,24.838,4.648,6.1602,75.45,37.501
2014-10-31 07:00,11.85,32.699,24.831,4.764,6.1577,77.37,37.515
2014-10-31 08:00,11.89,32.674,24.804,4.835,6.1535,78.57,37.525
2014-10-31 09:00,11.90,32.670,24.799,4.853,6.1523,78.88,37.530
2014-10-31 10:00,11.93,32.675,24.798,4.836,6.1481,78.66,37.563
2014-10-31 11:00,11.89,32.679,24.808,4.695,6.1533,76.30,37.530
2014-10-31 12:00,11.89,32.658,24.792,4.759,6.1541,77.32,37.509
2014-10-31 13:00,11.89,32.693,24.819,4.821,6.1527,78.35,37.545
2014-10-31 14:00,11.89,32.640,24.778,4.836,6.1548,78.57,37.490
2014-10-31 15:00,11.85,32.680,24.816,4.765,6.1585,77.37,37.495
2014-10-31 16:00,11.79,32.670,24.820,4.595,6.1668,74.52,37.431
2014-10-31 17:00,11.68,32.679,24.846,4.565,6.1810,73.85,37.340
2014-10-31 18:00,11.72,32.655,24.821,4.625,6.1766,74.87,37.352
2014-10-31 19:00,11.75,32.692,24.844,4.733,6.1712,76.70,37.417
2014-10-31 20:00,11.75,32.671,24.828,4.489,6.1720,72.74,37.396
2014-10-31 21:00,11.86,32.698,24.828,4.626,6.1565,75.14,37.523
2014-10-31 22:00,11.88,32.685,24.815,4.868,6.1543,79.10,37.528
2014-10-31 23:00,11.90,32.680,24.807,4.686,6.1519,76.17,37.541
2014-11-01 00:00,11.91,32.678,24.803,4.866,6.1507,79.11,37.547
2014-11-01 01:00,11.96,32.673,24.791,4.800,6.1443,78.13,37.588
2014-11-01 02:00,12.03,32.664,24.770,4.854,6.1355,79.11,37.642
2014-11-01 03:00,12.02,32.691,24.793,4.930,6.1358,80.35,37.661
2014-11-01 04:00,11.95,32.722,24.830,4.909,6.1437,79.91,37.629
2014-11-01 05:00,11.97,32.710,24.817,4.957,6.1416,80.71,37.635
2014-11-01 06:00,11.97,32.712,24.819,4.943,6.1415,80.49,37.637
2014-11-01 07:00,11.95,32.700,24.813,4.820,6.1446,78.44,37.606
2014-11-01 08:00,11.96,32.666,24.785,4.948,6.1446,80.53,37.580
2014-11-01 09:00,11.97,32.651,24.771,4.778,6.1438,77.77,37.574
2014-11-01 10:00,12.00,32.610,24.734,4.902,6.1415,79.82,37.559
2014-11-01 11:00,11.96,32.594,24.729,4.847,6.1474,78.84,37.506
2014-11-01 12:00,11.92,32.628,24.763,4.833,6.1513,78.57,37.505
2014-11-01 13:00,11.93,32.628,24.761,4.914,6.1500,79.91,37.514
2014-11-01 14:00,11.92,32.657,24.785,4.977,6.1502,80.93,37.535
2014-11-01 15:00,11.90,32.586,24.734,4.834,6.1556,78.53,37.443
2014-11-01 16:00,11.91,32.634,24.769,5.039,6.1524,81.91,37.502
2014-11-01 17:00,11.87,32.681,24.813,4.875,6.1558,79.19,37.514
2014-11-01 18:00,11.90,32.645,24.779,4.928,6.1533,80.08,37.504
2014-11-01 19:00,11.93,32.620,24.755,4.925,6.1503,80.09,37.506
2014-11-01 20:00,11.95,32.621,24.752,4.984,6.1476,81.07,37.525
2014-11-01 21:00,12.00,32.666,24.778,5.059,6.1393,82.40,37.617
2014-11-01 22:00,12.00,32.693,24.799,5.094,6.1383,82.98,37.645
2014-11-01 23:00,11.94,32.702,24.816,4.925,6.1458,80.13,37.599
2014-11-02 00:00,11.95,32.654,24.777,4.766,6.1464,77.55,37.559
2014-11-02 01:00,11.92,32.661,24.788,4.958,6.1500,80.62,37.539
2014-11-02 02:00,11.91,32.702,24.822,4.714,6.1498,76.66,37.572
2014-11-02 03:00,11.90,32.701,24.823,4.932,6.1511,80.17,37.562
2014-11-02 04:00,11.87,32.716,24.840,4.901,6.1545,79.64,37.550
2014-11-02 05:00,11.86,32.706,24.834,4.840,6.1562,78.61,37.531
2014-11-02 06:00,11.85,32.724,24.851,4.876,6.1568,79.19,37.541
2014-11-02 07:00,11.93,32.706,24.822,4.865,6.1470,79.15,37.595
2014-11-02 08:00,12.00,32.729,24.826,5.117,6.1369,83.38,37.682
2014-11-02 09:00,12.01,32.731,24.826,5.291,6.1355,86.23,37.693
2014-11-02 10:00,11.85,32.725,24.851,5.369,6.1567,87.21,37.542
2014-11-02 11:00,11.85,32.744,24.866,5.341,6.1560,86.76,37.561
2014-11-02 12:00,11.91,32.784,24.886,5.295,6.1466,86.14,37.657
2014-11-02 13:00,11.84,32.842,24.944,5.185,6.1535,84.27,37.653
2014-11-02 14:00,11.81,32.860,24.963,5.051,6.1568,82.04,37.644
2014-11-02 15:00,11.82,32.841,24.947,5.204,6.1562,84.53,37.634
2014-11-02 16:00,11.82,32.844,24.949,5.179,6.1561,84.13,37.637
2014-11-02 17:00,11.77,32.777,24.906,5.181,6.1653,84.04,37.523
2014-11-02 18:00,11.76,32.743,24.882,5.263,6.1679,85.33,37.479
2014-11-02 19:00,11.74,32.742,24.884,5.202,6.1706,84.31,37.459
2014-11-02 20:00,11.70,32.765,24.910,5.121,6.1750,82.93,37.447
2014-11-02 21:00,11.68,32.794,24.936,5.268,6.1765,85.29,37.459
2014-11-02 22:00,11.64,32.760,24.917,5.078,6.1831,82.13,37.387
2014-11-02 23:00,11.65,32.736,24.897,5.116,6.1827,82.75,37.372
2014-11-03 00:00,11.64,32.740,24.901,5.271,6.1839,85.24,37.367
2014-11-03 01:00,11.64,32.757,24.914,5.191,6.1832,83.95,37.384
2014-11-03 02:00,11.65,32.729,24.891,5.026,6.1830,81.28,37.365
2014-11-03 03:00,11.62,32.749,24.912,5.086,6.1862,82.21,37.358
2014-11-03 04:00,11.62,32.721,24.890,5.057,6.1873,81.73,37.329
2014-11-03 05:00,11.61,32.685,24.864,5.205,6.1900,84.08,37.283
2014-11-03 06:00,11.65,32.778,24.929,4.980,6.1811,80.57,37.415
2014-11-03 07:00,11.56,32.778,24.945,5.058,6.1930,81.68,37.333
2014-11-03 08:00,11.55,32.747,24.924,5.157,6.1955,83.24,37.293
2014-11-03 09:00,11.56,32.754,24.927,4.886,6.1940,78.88,37.309
2014-11-03 10:00,11.58,32.719,24.896,5.146,6.1927,83.10,37.291
2014-11-03 11:00,11.58,32.719,24.896,4.951,6.1927,79.94,37.291
2014-11-03 12:00,11.55,32.694,24.882,5.139,6.1976,82.93,37.238
2014-11-03 13:00,11.57,32.664,24.855,5.124,6.1961,82.70,37.226
2014-11-03 14:00,11.55,32.628,24.831,5.119,6.2002,82.57,37.171
2014-11-03 15:00,11.53,32.623,24.831,5.155,6.2030,83.10,37.148
2014-11-03 16:00,11.48,32.622,24.839,5.111,6.2097,82.30,37.102
2014-11-03 17:00,11.41,32.585,24.823,4.890,6.2206,78.61,37.001
2014-11-03 18:00,11.45,32.526,24.770,4.965,6.2175,79.85,36.977
2014-11-03 19:00,11.31,32.651,24.892,4.812,6.2314,77.22,36.978
2014-11-03 20:00,11.45,32.568,24.802,5.088,6.2159,81.86,37.019
2014-11-03 21:00,11.42,32.587,24.823,5.069,6.2191,81.50,37.012
2014-11-03 22:00,11.40,32.595,24.832,4.935,6.2215,79.32,37.002
2014-11-03 23:00,11.34,32.622,24.864,4.890,6.2285,78.52,36.976
2014-11-04 00:00,11.34,32.603,24.849,4.966,6.2293,79.72,36.956
2014-11-04 01:00,11.47,32.515,24.757,4.949,6.2153,79.63,36.983
2014-11-04 02:00,11.45,32.480,24.734,4.728,6.2193,76.03,36.930
2014-11-04 03:00,11.48,32.501,24.745,5.126,6.2145,82.48,36.978
2014-11-04 04:00,11.46,32.514,24.758,4.948,6.2167,79.59,36.973
2014-11-04 05:00,11.43,32.526,24.774,4.754,6.2202,76.43,36.959
2014-11-04 06:00,11.41,32.516,24.769,4.878,6.2233,78.38,36.930
2014-11-04 07:00,11.17,32.617,24.891,4.522,6.2516,72.33,36.818
2014-11-04 08:00,11.10,32.643,24.923,4.461,6.2600,71.26,36.781
2014-11-04 09:00,11.13,32.638,24.914,4.450,6.2562,71.12,36.803
2014-11-04 10:00,11.18,32.609,24.882,4.368,6.2506,69.88,36.818
2014-11-04 11:00,11.39,32.519,24.775,4.495,6.2258,72.20,36.915
2014-11-04 12:00,11.38,32.542,24.795,4.537,6.2263,72.86,36.930
2014-11-04 13:00,11.39,32.525,24.780,4.425,6.2256,71.08,36.922
2014-11-04 14:00,11.41,32.505,24.760,4.488,6.2237,72.11,36.919
2014-11-04 15:00,11.40,32.507,24.764,4.430,6.2250,71.17,36.912
2014-11-04 16:00,11.39,32.498,24.759,4.379,6.2266,70.33,36.894
2014-11-04 17:00,11.40,32.508,24.764,4.383,6.2249,70.42,36.913
2014-11-04 18:00,11.34,32.550,24.808,4.477,6.2313,71.84,36.902
2014-11-04 19:00,11.34,32.533,24.795,4.485,6.2320,71.97,36.885
2014-11-04 20:00,11.30,32.535,24.804,4.517,6.2373,72.42,36.851
2014-11-04 21:00,11.19,32.555,24.839,4.736,6.2513,75.75,36.773
2014-11-04 22:00,11.22,32.550,24.829,4.577,6.2475,73.26,36.794
2014-11-04 23:00,11.24,32.546,24.823,4.836,6.2449,77.45,36.808
2014-11-05 00:00,11.35,32.514,24.779,4.618,6.2314,74.11,36.875
2014-11-05 01:00,11.37,32.507,24.769,4.636,6.2290,74.42,36.885
2014-11-05 02:00,11.20,32.554,24.837,4.657,6.2500,74.51,36.781
2014-11-05 03:00,11.29,32.529,24.801,4.721,6.2389,75.67,36.836
2014-11-05 04:00,11.39,32.467,24.734,5.006,6.2279,80.39,36.862
2014-11-05 05:00,11.38,32.485,24.751,5.015,6.2285,80.52,36.872
2014-11-05 06:00,11.35,32.430,24.713,5.089,6.2347,81.63,36.789
2014-11-05 07:00,11.35,32.467,24.742,4.872,6.2332,78.16,36.827
2014-11-05 08:00,11.12,32.558,24.854,4.787,6.2607,76.47,36.713
2014-11-05 09:00,11.10,32.563,24.861,4.580,6.2632,73.13,36.700
2014-11-05 10:00,11.12,32.558,24.854,4.439,6.2607,70.90,36.713
2014-11-05 11:00,11.15,32.553,24.845,4.748,6.2568,75.89,36.735
2014-11-05 12:00,11.00,32.593,24.902,4.570,6.2756,72.81,36.641
2014-11-05 13:00,11.03,32.585,24.890,4.282,6.2719,68.28,36.659
2014-11-05 14:00,11.07,32.592,24.889,4.504,6.2661,71.88,36.702
2014-11-05 15:00,11.03,32.616,24.915,4.510,6.2706,71.92,36.691
2014-11-05 16:00,10.96,32.594,24.910,4.551,6.2810,72.46,36.606
2014-11-05 17:00,10.95,32.610,24.924,4.286,6.2817,68.23,36.613
2014-11-05 18:00,10.93,32.612,24.929,4.224,6.2844,67.21,36.597
2014-11-05 19:00,11.11,32.561,24.858,4.412,6.2619,70.46,36.707
2014-11-05 20:00,11.03,32.577,24.884,4.313,6.2722,68.77,36.651
2014-11-05 21:00,11.11,32.557,24.855,4.526,6.2621,72.28,36.703
2014-11-05 22:00,10.99,32.587,24.899,4.314,6.2772,68.72,36.626
2014-11-05 23:00,10.95,32.597,24.914,4.309,6.2822,68.59,36.600
2014-11-06 00:00,11.01,32.593,24.901,4.454,6.2742,70.99,36.650
2014-11-06 01:00,11.10,32.644,24.924,4.140,6.2600,66.14,36.782
2014-11-06 02:00,11.08,32.644,24.928,4.262,6.2627,68.05,36.764
2014-11-06 03:00,11.24,32.757,24.987,4.094,6.2366,65.65,37.023
2014-11-06 04:00,11.21,32.759,24.994,4.092,6.2406,65.56,36.998
2014-11-06 05:00,11.32,32.809,25.013,4.075,6.2239,65.48,37.148
2014-11-06 06:00,11.30,32.782,24.995,3.989,6.2276,64.05,37.102
2014-11-06 07:00,11.27,32.743,24.971,3.992,6.2331,64.05,37.036
2014-11-06 08:00,11.21,32.665,24.921,3.858,6.2443,61.78,36.902
2014-11-06 09:00,11.18,32.668,24.928,4.035,6.2482,64.58,36.878
2014-11-06 10:00,11.15,32.646,24.917,3.894,6.2532,62.27,36.829
2014-11-06 11:00,11.19,32.691,24.945,4.012,6.2460,64.23,36.911
2014-11-06 12:00,11.34,32.798,25.001,4.129,6.2216,66.37,37.155
2014-11-06 13:00,11.19,32.617,24.887,4.155,6.2489,66.50,36.836
2014-11-06 14:00,11.42,32.818,25.002,4.343,6.2101,69.93,37.248
2014-11-06 15:00,11.32,32.734,24.955,4.504,6.2268,72.33,37.072
2014-11-06 16:00,11.37,32.734,24.946,4.421,6.2201,71.08,37.117
2014-11-06 17:00,11.33,32.676,24.908,4.421,6.2277,70.99,37.022
2014-11-06 18:00,11.35,32.768,24.976,4.514,6.2215,72.55,37.133
2014-11-06 19:00,11.29,32.665,24.906,4.270,6.2335,68.50,36.974
2014-11-06 20:00,11.31,32.731,24.954,4.727,6.2283,75.89,37.059
2014-11-06 21:00,11.29,32.722,24.951,4.474,6.2313,71.79,37.032
2014-11-06 22:00,11.28,32.692,24.929,4.586,6.2338,73.57,36.993
2014-11-06 23:00,11.29,32.724,24.952,4.715,6.2312,75.67,37.034
2014-11-07 00:00,11.26,32.661,24.909,4.678,6.2377,75.00,36.943
2014-11-07 01:00,11.29,32.693,24.928,4.655,6.2324,74.69,37.003
2014-11-07 02:00,11.27,32.668,24.912,4.893,6.2361,78.47,36.959
2014-11-07 03:00,11.30,32.717,24.945,4.853,6.2302,77.89,37.036
2014-11-07 04:00,11.31,32.735,24.958,4.754,6.2281,76.33,37.064
2014-11-07 05:00,11.32,32.730,24.952,4.778,6.2269,76.74,37.068
2014-11-07 06:00,11.38,32.791,24.988,4.878,6.2165,78.47,37.184
2014-11-07 07:00,11.41,32.805,24.994,4.886,6.2120,78.65,37.225
2014-11-07 08:00,11.44,32.841,25.016,4.901,6.2066,78.96,37.289
2014-11-07 09:00,11.43,32.838,25.016,4.861,6.2080,78.29,37.277
2014-11-07 10:00,11.39,32.789,24.985,4.739,6.2153,76.25,37.191
2014-11-07 11:00,11.37,32.763,24.968,4.927,6.2190,79.23,37.146
2014-11-07 12:00,11.44,32.830,25.008,4.882,6.2070,78.65,37.278
2014-11-07 13:00,11.48,32.882,25.041,4.796,6.1996,77.36,37.367
2014-11-07 14:00,11.47,32.847,25.015,4.967,6.2023,80.08,37.322
2014-11-07 15:00,11.53,32.945,25.081,4.781,6.1905,77.23,37.477
2014-11-07 16:00,11.63,33.053,25.146,4.946,6.1731,80.12,37.678
2014-11-07 17:00,11.71,33.140,25.199,5.006,6.1591,81.28,37.841
2014-11-07 18:00,11.49,32.895,25.050,5.018,6.1978,80.97,37.390
2014-11-07 19:00,11.41,32.848,25.027,5.070,6.2103,81.63,37.269
2014-11-07 20:00,11.43,32.857,25.030,5.053,6.2073,81.41,37.296
2014-11-07 21:00,11.37,32.811,25.006,5.114,6.2171,82.25,37.195
2014-11-07 22:00,11.42,32.832,25.013,4.994,6.2096,80.43,37.262
2014-11-07 23:00,11.51,32.909,25.056,5.087,6.1946,82.12,37.422
2014-11-08 00:00,11.54,32.985,25.110,5.024,6.1876,81.19,37.527
2014-11-08 01:00,11.48,32.982,25.118,5.061,6.1957,81.68,37.469
2014-11-08 02:00,11.36,32.892,25.071,5.140,6.2152,82.70,37.269
2014-11-08 03:00,11.43,32.961,25.111,5.102,6.2032,82.26,37.402
2014-11-08 04:00,11.42,32.960,25.112,4.971,6.2046,80.12,37.392
2014-11-08 05:00,11.62,33.127,25.206,4.722,6.1715,76.52,37.745
2014-11-08 06:00,11.60,33.122,25.206,5.043,6.1744,81.68,37.722
2014-11-08 07:00,11.60,33.120,25.204,4.961,6.1744,80.34,37.720
2014-11-08 08:00,11.50,33.028,25.150,5.068,6.1913,81.86,37.534
2014-11-08 09:00,11.42,32.937,25.095,4.925,6.2055,79.36,37.369
2014-11-08 10:00,11.44,32.906,25.067,4.965,6.2040,80.03,37.355
2014-11-08 11:00,11.48,32.972,25.111,5.022,6.1961,81.05,37.459
2014-11-08 12:00,11.43,32.918,25.078,4.717,6.2049,76.02,37.359
2014-11-08 13:00,11.44,32.934,25.089,4.799,6.2029,77.36,37.384
2014-11-08 14:00,11.44,32.915,25.074,4.879,6.2037,78.65,37.365
2014-11-08 15:00,11.46,32.953,25.099,5.019,6.1995,80.97,37.421
2014-11-08 16:00,11.47,32.944,25.091,5.024,6.1986,81.05,37.421
2014-11-08 17:00,11.37,32.886,25.064,4.901,6.2141,78.87,37.272
2014-11-08 18:00,11.45,32.948,25.097,4.579,6.2011,73.84,37.407
2014-11-08 19:00,11.43,32.945,25.099,4.885,6.2038,78.74,37.386
2014-11-08 20:00,11.36,32.877,25.059,4.867,6.2159,78.29,37.253
2014-11-08 21:00,11.36,32.872,25.055,4.764,6.2160,76.65,37.248
2014-11-08 22:00,11.51,32.974,25.107,4.719,6.1921,76.20,37.488
2014-11-08 23:00,11.37,32.850,25.036,4.673,6.2156,75.18,37.235
2014-11-09 00:00,11.36,32.827,25.020,5.167,6.2178,83.10,37.202
2014-11-09 01:00,11.24,32.779,25.004,5.082,6.2358,81.50,37.045
2014-11-09 02:00,11.27,32.776,24.996,4.763,6.2319,76.42,37.069
2014-11-09 03:00,11.45,32.931,25.084,5.024,6.2017,81.01,37.390
2014-11-09 04:00,11.43,32.915,25.075,4.977,6.2050,80.21,37.355
2014-11-09 05:00,11.47,32.928,25.078,4.939,6.1992,79.67,37.405
2014-11-09 06:00,11.44,32.917,25.076,4.901,6.2036,79.01,37.367
2014-11-09 07:00,11.44,32.933,25.088,5.077,6.2030,81.86,37.383
2014-11-09 08:00,11.29,32.865,25.062,4.907,6.2257,78.83,37.178
2014-11-09 09:00,11.37,32.861,25.044,5.151,6.2151,82.88,37.246
2014-11-09 10:00,11.24,32.790,25.012,5.032,6.2354,80.69,37.056
2014-11-09 11:00,11.39,32.906,25.076,5.017,6.2107,80.79,37.310
2014-11-09 12:00,11.41,32.910,25.075,5.068,6.2079,81.63,37.332
2014-11-09 13:00,11.34,32.877,25.062,4.808,6.2185,77.31,37.235
2014-11-09 14:00,11.26,32.845,25.052,5.133,6.2305,82.39,37.130
2014-11-09 15:00,11.41,32.953,25.109,4.699,6.2062,75.71,37.376
2014-11-09 16:00,11.27,32.886,25.082,5.208,6.2276,83.63,37.181
2014-11-09 17:00,11.23,32.870,25.076,4.872,6.2336,78.16,37.128
2014-11-09 18:00,11.20,32.840,25.059,5.051,6.2388,80.96,37.071
2014-11-09 19:00,11.21,32.857,25.070,4.861,6.2368,77.94,37.097
2014-11-09 20:00,11.21,32.853,25.067,4.858,6.2369,77.89,37.093
2014-11-09 21:00,11.21,32.859,25.072,4.525,6.2367,72.55,37.099
2014-11-09 22:00,11.21,32.857,25.070,4.405,6.2368,70.64,37.097
2014-11-09 23:00,11.22,32.864,25.074,4.571,6.2352,73.31,37.113
2014-11-10 00:00,11.27,32.892,25.087,4.521,6.2273,72.60,37.187
2014-11-10 01:00,11.24,32.875,25.079,4.336,6.2320,69.57,37.143
2014-11-10 02:00,11.23,32.879,25.084,4.614,6.2332,74.02,37.138
2014-11-10 03:00,11.23,32.872,25.078,4.714,6.2335,75.62,37.130
2014-11-10 04:00,11.23,32.867,25.074,4.650,6.2337,74.60,37.125
2014-11-10 05:00,11.21,32.862,25.074,4.858,6.2366,77.89,37.102
2014-11-10 06:00,11.20,32.843,25.061,4.604,6.2387,73.80,37.074
2014-11-10 07:00,11.19,32.836,25.058,4.702,6.2403,75.35,37.058
2014-11-10 08:00,11.18,32.835,25.059,4.448,6.2417,71.26,37.048
2014-11-10 09:00,11.20,32.837,25.057,4.615,6.2389,73.97,37.068
2014-11-10 10:00,11.15,32.800,25.036,4.493,6.2471,71.93,36.985